{"data":{"norad_id":63768,"epoch":"2026-05-24T22:49:18.052032Z","epoch_age_seconds":75989,"freshness":"FRESH","line1":"1 63768U 25089T   26144.95090338  .00018263  00000+0  67110-3 0  9995","line2":"2 63768  43.0010 334.3012 0001052 278.4114  81.6618 15.27602249 60623","mean_motion":15.27602249,"eccentricity":0.0001052,"inclination_deg":43.001,"raan_deg":334.3012,"arg_perigee_deg":278.4114,"mean_anomaly_deg":81.6618,"bstar":0.0006711,"rev_number":6062,"period_min":94.265375750962,"perigee_km":482.26068556941,"apogee_km":483.70426510702,"semimajor_km":6861.1194753382,"source":"CELESTRAK","updated_at":"2026-05-25T13:38:20.106716Z"}}